Regional Weather Roundup
Issued by NWS

Home | Current Version | Previous Version | Text Only | Print | Product List | Glossary Off
Versions: 1 2 3 4 5 6 7 8 9 10 11 12 13 14 15 16 17 18 19 20 21 22 23 24 25 26 27 28 29 30 31 32 33 34 35 36 37 38 39 40 41 42 43 44 45 46 47 48 49 50

000
ASUS43 KBIS 022102
RWRND

NORTH DAKOTA REGIONAL WEATHER ROUNDUP
NATIONAL WEATHER SERVICE BISMARCK ND
400 PM CDT MON MAY 02 2016

NOTE: "FAIR" INDICATES FEW OR NO CLOUDS BELOW 12,000 FEET WITH NO
SIGNIFICANT WEATHER AND/OR OBSTRUCTIONS TO VISIBILITY.


NDZ001>003-009>011-017-022200-
NORTHWEST NORTH DAKOTA

CITY           SKY/WX    TMP DP  RH WIND       PRES   REMARKS
WILLISTON      SUNNY     75  30  19 N15G28    30.00S
MINOT          SUNNY     73  33  23 NE8       29.98F
MINOT AFB      SUNNY     67  37  32 NE7       29.97F
$$

NDZ018>021-031>035-040>046-022200-
SOUTHWEST NORTH DAKOTA

CITY           SKY/WX    TMP DP  RH WIND       PRES   REMARKS
BISMARCK       MOSUNNY   64  42  44 E5        29.98F
DICKINSON      SUNNY     68  30  24 N21G30    29.97R
GARRISON         N/A     68  34  28 E7        29.98S
HETTINGER ARPT MOSUNNY   68  31  25 N28G36    29.96F
$$

NDZ004>008-012>016-024-026-027-054-022200-
NORTHEAST NORTH DAKOTA

CITY           SKY/WX    TMP DP  RH WIND       PRES   REMARKS
GRAND FORKS    MOSUNNY   71  29  21 E7        29.96F
GRND FRKS AFB  SUNNY     71  28  20 VRB3      29.96F
DEVILS LAKE    SUNNY     65  35  33 SE8       30.00F
$$

NDZ022-023-025-028>030-036>039-047>053-022200-
SOUTHEAST NORTH DAKOTA

CITY           SKY/WX    TMP DP  RH WIND       PRES   REMARKS
FARGO          SUNNY     70  28  21 VRB3      29.96F
JAMESTOWN      SUNNY     60  42  51 S16G22    30.00F
$$




USA.gov is the U.S. government's official web portal to all federal, state and local government web resources and services.